Tracking 33446 objects as of 10-Mar-2026
HD Live streaming from Space Station
objects crossing your sky now

STARLINK-35335

Track STARLINK-35335 now!
10-day predictions
STARLINK-35335 is classified as:


NORAD ID: 66180
Int'l Code: 2025-243D
Perigee: 481.7 km
Apogee: 483.0 km
Inclination: 53.2 °
Period: 94.1 minutes
Semi major axis: 6853 km
RCS: Unknown
Launch date: October 26, 2025
Source: United States (US)
Launch site: AIR FORCE EASTERN TEST RANGE (AFETR)
Your satellite tracking list
Your tracking list is empty




NASA's NSSDC Master Catalog

Two Line Element Set (TLE):
1 66180U 25243D   26068.77030158  .00033589  00000-0  11410-2 0  9997
2 66180  53.1580 245.0526 0000954  68.2422 291.8681 15.30202745 20669
Source of the keplerian elements: AFSPC